Location: Presov
(49.0000°N, 21.2500°E)
Time: 11:16:28
(UTC+02:00)

A-11 Canister half - Pass Details

Date: 28 April 2021
Orbit: 1526 x 1683 km, 47.3° (Epoch: 11 May)

Event Time Altitude Azimuth Distance (km) Brightness Sun altitude
Rises 20:44:24 0° 290° (WNW) 4,933 13.5 -9.1°
Reaches altitude 10° 20:48:11 10° 279° (W) 3,947 12.3 -9.6°
Maximum altitude 20:56:05 27° 228° (SW) 2,822 10.5 -10.7°
Drops below altitude 10° 21:03:57 10° 175° (S) 3,909 10.7 -11.7°
Enters shadow 21:06:29 - 167° (SSE) 4,549 11.0 -12.0°
